Lapse_Rate
5.5 5.5 5.5 5.6 5.6 5.6 5.6 5.5 5.5 5.4 5.2 5.3 5.4 5.4 5.3 5.4 5.4 5.5 5.5 4.7 5.0 5.7 6.2 6.5 6.9 6.9 6.8 7.0 7.1 7.1 7.2 7.1 7.0 6.7 6.4 6.5 6.6 6.9 6.7 6.6 6.6 6.4 6.6 6.7 6.7
5.6 5.6 5.6 5.6 5.6 5.7 5.8 5.8 5.7 5.8 5.6 5.3 5.5 5.4 5.4 5.5 5.5 5.6 5.1 5.4 5.9 6.2 6.7 7.1 7.1 7.1 7.0 7.0 7.2 7.1 7.0 7.3 7.2 7.0 6.5 6.6 6.5 6.7 6.9 6.7 6.8 6.8 6.7 6.6 6.9
5.8 5.8 5.8 5.8 5.7 5.7 5.8 5.9 6.0 5.9 5.9 5.8 5.6 5.6 5.4 5.4 5.6 5.6 5.5 5.5 5.8 6.0 6.1 6.2 6.2 6.6 7.0 7.1 7.3 7.7 7.2 7.1 7.1 7.0 7.1 6.9 6.4 6.9 7.1 7.2 7.0 7.0 7.2 7.0 6.9
6.0 6.1 6.1 6.0 5.9 5.9 5.9 5.8 5.9 6.1 6.0 6.0 6.0 5.9 5.6 5.4 5.3 5.5 5.5 5.6 5.6 5.6 5.7 5.9 6.0 6.6 6.9 7.4 7.3 7.6 7.3 7.0 7.2 7.1 7.5 7.5 7.2 6.9 7.2 7.2 7.0 7.0 6.9 6.9 7.2
6.1 6.2 6.2 6.2 6.2 6.1 6.0 6.0 6.0 6.1 6.1 6.0 6.0 6.1 5.9 5.7 5.7 5.1 5.3 5.3 5.5 5.6 5.6 6.3 6.7 7.2 7.2 7.4 7.3 7.4 7.5 7.1 6.8 6.9 7.5 7.8 7.9 7.6 7.4 7.3 7.5 7.1 7.1 7.1 7.2
5.8 5.9 6.0 6.2 6.3 6.2 6.2 6.2 6.2 6.0 6.0 6.2 6.2 6.3 6.2 6.0 6.1 5.3 5.6 5.5 5.4 5.5 5.5 5.8 6.8 7.3 7.1 7.3 7.3 7.5 7.3 7.2 7.1 7.2 7.6 8.0 8.0 7.8 8.1 7.6 7.8 7.5 7.1 7.2 7.0
5.6 5.7 5.7 5.9 6.2 6.2 6.3 6.5 6.4 6.2 6.1 6.1 6.3 6.4 6.5 5.5 6.0 5.7 5.7 5.6 5.6 5.5 5.7 6.0 6.3 6.4 7.0 7.2 7.3 7.2 7.1 7.1 7.3 7.3 7.6 8.1 8.3 8.6 8.2 8.0 7.7 7.5 7.2 7.3 7.0
5.3 5.4 5.5 5.7 6.0 6.1 6.3 6.3 6.5 6.5 6.3 6.2 6.3 6.4 6.7 5.7 6.5 6.1 5.8 5.8 5.7 5.5 5.5 5.3 5.6 5.9 6.1 6.0 6.4 6.6 6.9 7.1 7.7 7.8 7.9 8.0 8.5 8.9 8.5 8.0 7.8 7.4 7.3 7.3 7.3
5.3 5.4 5.3 5.1 5.5 5.8 6.2 6.3 6.3 6.4 6.3 6.2 6.3 6.2 6.5 6.2 6.4 6.1 5.7 5.8 5.5 5.4 5.0 4.9 4.9 5.0 5.5 5.6 5.8 5.8 6.6 7.5 7.6 7.7 7.8 8.0 8.4 8.8 8.9 8.4 8.3 8.0 7.4 7.2 7.1
5.4 5.5 5.3 5.3 5.3 5.5 5.6 6.0 6.1 6.4 6.4 6.2 6.2 6.1 6.6 6.2 6.3 6.6 5.7 5.6 5.4 5.2 4.7 4.6 4.7 4.8 5.1 4.6 5.1 5.4 6.1 7.3 7.6 7.7 7.7 8.1 8.5 8.8 8.6 8.5 8.5 8.1 7.6 7.2 7.3
5.1 5.3 5.5 5.2 5.2 5.3 5.3 5.5 5.7 5.7 6.3 6.4 6.3 6.5 6.3 6.6 6.3 6.3 6.0 5.3 5.0 5.0 5.1 5.0 4.7 5.2 4.9 5.1 5.6 6.4 6.6 7.3 7.8 7.6 7.6 7.8 8.4 8.6 8.4 8.2 8.2 8.2 8.1 7.6 7.1
4.8 5.0 5.4 5.0 4.9 4.9 5.1 5.1 5.2 5.1 6.0 6.1 6.2 6.4 6.0 6.1 6.3 6.1 5.7 5.2 5.1 5.2 5.1 4.8 5.1 6.1 6.0 6.2 6.3 6.4 6.1 6.9 7.6 7.7 7.4 7.8 8.3 8.5 8.5 8.5 8.2 8.4 8.5 8.2 7.0
4.2 4.4 4.7 4.9 4.6 4.2 4.2 4.3 4.5 4.5 4.8 6.8 6.2 6.7 6.2 5.7 6.0 6.2 6.0 5.5 5.5 5.0 5.2 5.5 5.7 5.7 5.7 5.9 5.8 5.8 6.0 6.7 7.2 7.5 7.4 7.5 7.7 8.2 8.5 8.7 8.7 8.5 8.1 7.9 7.4
3.6 3.6 3.8 4.4 4.5 3.9 3.7 3.7 3.8 3.6 4.3 5.7 6.6 6.3 6.5 5.6 5.6 5.8 5.8 5.9 4.8 5.2 5.3 4.7 4.7 5.2 5.6 5.6 5.9 5.7 6.6 6.4 6.9 7.1 7.4 7.2 7.8 7.8 8.2 8.2 8.6 8.8 8.3 7.8 7.5
3.4 3.4 3.5 3.5 4.1 4.0 3.7 3.4 3.3 3.1 4.5 5.1 4.7 4.9 5.7 5.6 5.6 5.9 5.6 5.2 5.2 5.1 4.8 4.8 5.3 5.0 5.6 6.1 5.5 5.5 5.9 6.7 6.9 7.2 7.4 7.2 7.0 7.7 7.6 8.0 8.7 8.9 8.6 8.3 7.5
3.0 2.9 3.0 3.3 3.4 3.9 3.9 3.4 2.9 3.3 3.7 4.6 4.5 4.6 4.9 5.0 5.0 5.5 5.5 5.0 5.3 5.0 5.1 5.2 5.4 5.0 5.7 6.0 5.9 5.7 5.8 6.3 6.6 7.0 6.6 6.9 6.7 7.3 7.2 8.1 8.8 8.9 8.8 8.7 8.0
2.8 2.6 2.8 2.7 3.0 3.5 3.7 3.5 3.2 3.2 4.5 4.3 4.0 4.5 4.7 4.7 4.6 4.9 5.3 4.6 4.7 4.6 4.5 4.7 4.7 5.1 5.0 5.0 5.2 5.0 5.6 6.5 6.8 6.5 5.6 7.0 6.5 6.1 7.4 7.8 8.6 9.0 8.9 9.1 8.8
3.2 2.8 2.7 2.6 2.7 3.3 3.5 3.3 3.1 3.3 3.3 3.7 3.9 4.2 4.8 5.0 4.8 4.9 4.9 4.5 4.6 5.1 5.3 5.2 4.7 4.9 4.8 4.9 5.0 5.0 5.5 5.9 5.8 6.4 7.0 6.4 5.9 6.3 7.3 7.8 8.5 9.0 8.8 8.9 8.7
4.6 3.9 3.0 2.7 2.5 2.8 3.1 3.1 3.2 2.1 2.2 2.5 3.6 4.2 4.8 5.0 5.1 5.3 4.9 4.8 4.9 5.1 5.5 5.4 5.3 5.5 5.3 5.7 5.4 5.1 5.1 5.9 6.4 5.7 6.0 6.3 6.1 6.4 7.0 7.8 8.2 8.7 8.9 9.0 8.9
7.2 7.2 6.2 5.3 4.1 3.2 3.2 3.0 2.9 2.2 2.0 2.3 2.7 3.2 3.4 4.4 5.3 5.2 4.8 4.6 4.8 4.8 5.2 5.4 5.3 5.6 5.9 5.6 5.7 5.4 5.8 5.6 5.8 6.1 6.0 6.2 5.5 6.4 7.0 7.3 8.1 8.5 8.7 8.9 8.8
7.2 7.5 7.3 7.2 7.0 5.8 4.6 4.0 3.6 2.3 2.3 2.4 2.3 2.4 2.7 3.3 4.5 4.7 4.1 3.9 4.4 4.7 5.0 5.3 5.4 5.7 5.5 5.0 5.3 4.7 4.8 5.3 5.7 5.8 6.6 6.3 6.4 6.3 6.8 7.5 7.9 8.5 8.7 9.0 8.8
7.3 7.3 7.2 7.3 7.1 6.9 6.1 5.2 4.9 3.9 2.9 2.8 2.3 2.5 2.7 3.0 3.7 4.5 4.2 3.8 4.0 4.2 4.5 5.0 5.3 5.7 5.4 5.6 5.9 5.5 5.8 5.7 6.1 5.4 5.4 6.3 6.3 6.6 6.6 7.2 7.7 8.2 8.7 9.0 8.8
7.3 7.3 7.3 7.4 7.5 7.7 7.4 6.5 5.6 4.9 4.3 3.5 3.3 2.9 2.7 3.3 4.1 4.1 4.1 3.8 3.8 4.0 4.3 4.5 5.0 5.6 5.7 5.7 5.5 5.4 5.7 5.4 5.6 5.9 5.2 5.7 5.7 6.4 6.7 7.1 7.0 7.2 7.8 8.2 8.5
6.8 7.1 7.4 7.3 7.2 7.4 7.4 7.7 7.2 5.9 5.1 4.9 4.1 3.9 3.6 3.4 4.2 4.3 4.0 3.9 3.8 4.0 4.0 3.9 4.4 5.2 6.2 6.1 5.5 5.1 5.3 5.4 5.6 5.6 5.3 4.9 5.5 5.7 6.4 6.7 7.3 7.3 7.5 7.9 8.4
6.7 6.8 6.9 7.1 7.3 7.4 6.9 7.2 7.4 7.1 6.4 6.1 6.2 5.3 4.8 4.4 4.2 4.6 4.7 4.4 4.1 3.9 4.1 4.2 3.7 4.0 4.2 4.6 3.9 4.4 5.0 5.0 4.7 5.3 5.3 5.3 5.2 5.2 5.9 6.6 7.1 7.3 7.5 8.2 8.2
6.4 6.4 6.4 6.8 7.0 6.9 7.1 7.1 7.2 7.2 7.3 6.8 6.7 6.5 6.4 5.1 4.5 4.4 4.3 4.3 4.2 4.1 4.0 3.9 3.9 3.8 3.8 4.3 3.8 4.2 4.6 5.0 4.7 4.7 4.5 4.7 4.9 5.1 5.4 5.5 6.0 6.7 7.0 7.5 7.9
6.0 6.0 6.2 6.8 7.0 6.9 6.9 7.0 7.0 6.9 7.3 7.2 7.2 6.4 6.7 6.7 5.7 4.7 4.2 4.3 4.4 4.1 4.2 3.9 3.7 3.9 4.2 4.0 4.0 4.2 4.9 4.6 4.6 4.7 4.9 4.6 4.8 5.4 5.8 5.8 6.0 6.5 6.6 7.1 7.5
Wind_Speed
25 25 26 25 25 24 24 24 24 23 23 22 21 20 21 20 15 5 9 11 11 18 22 19 15 14 13 6 2 1 3 2 1 3 1 10 4 5 6 12 6 6 8 15 23
25 26 26 26 26 26 25 24 24 24 23 22 20 19 18 18 5 12 13 16 16 29 21 22 20 19 7 7 4 4 3 2 3 2 5 12 9 10 4 12 7 7 13 23 23
25 26 27 27 28 28 27 26 25 25 24 22 20 17 16 13 6 7 1 20 25 32 18 18 21 16 9 5 7 6 5 3 2 5 3 12 10 8 7 10 11 15 22 25 23
26 26 27 27 28 29 29 29 28 26 24 21 18 14 14 3 6 1 11 23 28 25 23 20 20 14 9 8 11 5 11 8 2 0 3 11 11 8 12 3 11 17 25 27 25
27 27 28 28 29 30 30 30 29 28 25 20 14 9 4 4 12 1 13 23 24 21 26 19 24 13 14 10 8 14 9 5 11 11 9 7 15 10 16 10 12 20 25 24 23
28 28 29 29 30 31 31 31 30 30 26 18 11 4 3 9 4 6 14 22 25 24 24 20 16 12 10 7 15 4 12 13 10 13 11 13 10 9 11 14 16 22 26 23 24
29 29 30 31 33 34 34 32 34 31 25 17 11 7 5 15 5 9 17 14 25 25 27 20 13 16 8 5 10 10 13 13 14 10 8 11 9 18 10 19 20 22 23 22 22
29 30 31 32 34 36 35 34 30 18 10 8 15 8 9 3 9 2 7 6 17 16 17 12 6 16 4 1 2 3 3 5 1 7 5 14 15 15 17 20 21 23 22 21 23
30 32 33 33 37 39 37 29 13 12 15 20 10 5 7 5 6 13 13 8 18 16 5 10 8 7 5 9 7 5 9 8 6 9 5 12 13 5 20 21 21 22 22 21 21
31 33 35 36 38 41 37 15 4 8 10 2 5 4 7 4 5 8 13 18 9 17 7 7 7 12 11 12 13 10 9 9 12 1 7 10 17 2 19 22 21 22 22 22 23
32 33 35 40 39 41 14 1 2 3 2 8 2 5 3 4 8 6 16 16 10 14 13 15 12 22 22 18 14 7 15 11 4 3 6 12 13 9 15 18 20 20 21 22 24
33 34 35 38 41 24 6 5 6 6 12 15 22 18 20 4 3 12 20 15 14 17 16 8 24 21 13 15 17 16 17 16 8 10 4 6 10 9 15 21 23 25 24 24 22
33 35 36 37 39 4 5 7 8 7 6 9 8 8 8 13 7 16 26 17 23 22 27 26 6 20 19 15 18 20 22 19 14 3 4 7 13 6 11 16 17 21 21 20 23
32 33 36 41 4 8 3 7 12 2 5 6 5 5 7 9 10 14 23 17 12 26 23 22 20 22 23 26 22 23 17 16 15 8 11 5 12 6 11 16 18 19 21 22 24
34 31 33 15 6 5 9 15 13 3 6 4 4 5 9 14 1 13 22 12 21 20 16 18 23 18 25 25 20 16 11 16 17 14 11 13 8 12 4 12 19 21 23 24 24
35 33 33 1 2 7 14 16 3 4 9 1 4 3 6 12 2 4 15 12 6 11 20 19 7 24 16 20 23 13 7 9 6 9 15 20 14 17 15 15 14 18 22 23 24
35 36 12 6 6 21 12 3 4 7 7 5 4 5 5 2 7 7 18 26 17 16 17 20 14 12 18 17 19 20 16 7 9 11 15 12 14 21 9 18 20 18 23 24 25
38 31 9 4 14 15 5 3 9 3 5 9 8 13 3 4 2 2 16 24 21 19 15 19 16 20 19 21 14 26 22 9 14 14 12 8 13 13 15 19 19 18 18 20 22
30 7 4 4 20 5 3 5 4 9 9 13 13 4 1 3 5 4 7 20 21 15 13 19 19 9 17 12 22 15 23 22 8 1 5 13 14 10 8 18 17 18 15 18 22
8 4 5 17 13 2 2 3 4 12 15 9 5 7 5 8 3 3 2 7 6 1 5 6 7 13 25 18 23 14 18 11 13 15 13 8 9 13 18 19 17 18 18 19 20
3 4 9 26 2 3 3 5 7 10 14 8 8 8 7 6 6 4 7 9 9 7 5 2 5 4 16 21 22 11 19 12 13 9 9 7 10 8 15 17 20 22 21 20 19
3 3 8 11 6 3 5 12 9 10 10 5 7 4 5 5 4 4 3 7 14 9 1 3 4 11 17 14 22 23 19 22 11 14 12 7 7 1 10 10 13 16 17 13 15
4 3 4 6 5 7 9 7 6 13 11 7 6 9 6 5 3 5 5 7 12 12 6 4 3 12 12 10 10 21 23 22 21 12 17 11 6 11 4 3 7 11 13 12 12
3 4 3 3 1 6 10 6 9 10 5 6 8 7 7 2 2 2 5 5 10 9 9 4 1 10 14 11 3 6 11 24 24 17 18 20 17 9 6 6 7 9 11 10 10
3 2 1 4 4 9 10 6 12 9 8 8 2 9 9 4 3 4 6 6 4 12 7 4 2 5 5 7 6 9 10 10 18 24 22 21 27 21 17 18 12 9 9 10 11
2 2 1 6 8 8 5 3 9 10 8 8 5 10 9 4 6 6 9 4 3 6 7 7 1 4 8 9 9 11 13 14 15 17 16 22 26 11 7 14 18 20 17 15 14
1 2 2 4 5 4 3 6 11 14 7 5 8 15 10 11 11 13 12 12 12 9 4 5 3 2 5 7 13 15 21 17 14 13 15 21 18 14 16 16 15 18 18 16 15
Wind_Direction
355 352 349 346 343 340 336 332 329 327 325 324 325 329 328 328 321 165 237 220 181 163 147 146 161 158 173 171 161 286 281 278 216 193 135 162 149 127 103 140 166 179 152 144 155
351 349 346 342 338 335 332 329 325 321 319 319 321 324 327 330 306 257 237 204 172 153 157 164 162 160 174 184 181 218 257 218 202 215 304 176 162 145 146 159 174 112 123 140 156
347 345 342 338 335 331 327 323 319 315 313 313 315 319 323 327 288 251 137 192 171 164 166 162 151 157 170 165 195 183 233 231 194 303 21 162 153 158 157 187 187 165 149 154 163
344 341 338 335 331 327 324 319 315 310 306 306 308 313 317 279 259 104 322 174 167 163 153 154 162 166 184 192 203 226 244 248 288 142 121 171 161 184 189 170 187 164 163 161 171
342 338 335 332 328 323 319 314 310 305 299 297 295 304 308 223 248 302 106 149 163 167 163 168 172 173 184 195 187 235 260 246 251 257 269 190 195 189 207 172 146 155 167 174 175
341 337 333 330 326 321 317 315 309 301 292 283 270 248 221 245 231 203 143 156 167 175 173 171 184 180 176 191 199 204 244 258 272 255 242 216 223 199 208 171 144 159 174 180 183
339 335 333 330 326 320 319 317 310 298 281 263 228 189 217 245 99 157 155 175 174 179 177 185 171 187 168 182 226 260 274 273 248 226 233 216 230 225 177 163 155 167 177 184 190
339 336 333 332 326 321 323 320 318 309 275 210 177 173 245 235 233 182 175 163 188 176 193 181 198 199 215 258 178 237 225 268 330 198 211 187 266 235 174 168 168 171 178 190 195
339 336 335 335 328 325 324 322 325 43 103 127 135 207 253 122 206 206 183 169 171 179 177 178 189 205 180 225 245 219 241 235 277 216 177 210 280 319 180 179 176 178 181 190 199
339 337 337 335 330 328 325 319 201 90 115 180 102 245 234 220 168 154 170 149 156 169 194 188 186 213 213 203 215 214 216 238 251 189 217 230 252 10 186 191 188 184 186 190 200
339 338 339 333 334 330 333 301 312 184 280 235 204 276 300 313 144 154 165 153 127 165 181 194 202 211 209 215 226 231 232 236 251 243 250 240 261 228 194 202 198 191 194 194 204
341 339 338 333 333 329 329 59 63 300 299 253 245 255 263 316 209 154 165 169 186 191 183 173 222 212 208 202 217 224 233 237 253 268 272 275 256 215 195 206 204 195 197 201 201
341 340 335 335 329 12 347 80 3 330 256 283 222 230 222 189 233 182 178 186 190 194 194 205 212 200 198 201 213 225 226 230 241 304 228 267 262 222 217 223 216 212 210 206 202
341 342 334 338 329 338 70 331 335 274 276 257 222 245 169 157 233 205 192 176 190 204 197 220 205 192 203 216 207 226 221 234 236 242 249 219 263 225 222 216 218 214 210 210 206
339 339 331 344 298 331 309 327 321 170 287 103 141 148 155 187 55 196 189 203 197 183 178 201 200 190 210 210 201 226 206 211 230 236 252 224 254 245 200 220 219 217 214 211 210
336 335 331 350 265 281 306 308 191 221 242 65 100 163 167 220 246 121 186 211 183 188 213 207 207 196 202 208 202 199 172 177 194 231 239 234 229 252 220 220 225 222 219 213 212
334 329 332 312 329 328 316 280 197 234 347 18 2 350 328 246 222 182 190 191 187 184 195 203 195 195 197 188 199 201 183 182 209 217 237 224 223 241 234 220 229 213 217 213 209
332 324 327 254 303 323 310 233 226 10 346 350 334 307 229 343 198 243 192 195 205 205 184 195 209 196 188 201 187 199 199 205 214 235 237 184 236 240 222 224 227 232 223 213 209
330 339 334 339 326 315 302 240 357 21 345 329 319 296 290 10 332 333 195 209 203 206 209 202 216 190 182 185 185 185 210 210 242 142 252 227 243 259 235 217 215 222 215 212 215
331 343 326 334 336 311 275 297 333 15 338 330 329 359 342 356 354 12 80 3 246 225 300 186 207 199 197 187 199 192 172 179 213 225 234 213 240 234 198 211 214 226 220 216 220
4 353 359 339 300 25 36 324 311 344 351 323 330 315 327 342 335 22 26 53 357 326 343 236 234 146 177 202 183 184 191 200 198 222 223 245 242 201 221 215 212 216 216 215 217
352 359 354 339 39 5 352 320 299 331 344 316 308 310 306 329 329 37 85 33 354 335 357 28 240 214 206 195 213 201 197 198 202 197 232 267 241 174 232 229 233 237 233 238 227
360 294 340 347 41 354 338 308 316 346 343 350 329 2 347 334 310 46 40 20 8 20 23 352 227 199 227 212 205 218 212 207 216 230 211 211 194 236 216 182 213 228 236 238 231
352 346 347 39 70 347 338 322 331 341 8 337 331 355 344 329 14 29 14 8 344 10 351 309 24 255 222 223 13 219 217 212 219 227 228 228 242 223 244 241 271 268 272 257 239
4 31 11 317 335 324 322 301 315 351 344 338 36 17 0 295 305 5 12 340 14 1 3 15 30 338 315 308 291 262 252 239 232 235 233 243 242 239 248 276 274 281 283 287 274
326 319 300 287 293 301 321 298 310 336 324 318 5 353 349 307 22 332 348 1 4 350 6 351 312 335 307 305 290 277 255 250 246 245 255 259 261 257 280 259 268 264 270 276 260
308 258 215 269 291 288 307 322 309 327 299 311 325 320 313 291 324 311 290 274 274 296 314 317 294 265 262 324 318 269 243 244 247 240 243 244 250 253 253 243 243 255 254 251 249